Welcome to Crazy Orc, l'antre du jeu de rôles à Lyon. Please login or sign up.

29 Septembre 2023 à 12:18:22

Login with username, password and session length

Crazy Orc, l'antre du jeu de rôles à Lyon - Centre de statistiques

Statistiques générales

Total des membres:
710
Total des messages:
97771
Total des sujets:
4217
Total des catégories:
4
Membres en ligne:
19
Connexions simultanées:
808 - 21 Janvier 2020 à 20:55:59
En ligne aujourd'hui:
20
Total des pages vues:
36651087
Moyenne des inscriptions par jour:
0.26
Moyenne des messages par jour:
23.41
Moyenne des sujets par jour:
1.06
Total des sections:
40
Dernier membre:
MJ White Davor
Moyenne d'utilisateurs connectés par jour:
50.57
Statistiques des sexes:
Ne pas afficher: 342
Masculin: 309
Féminin: 59
Pages vues en moyenne par jour:
6058.03

Top 10 des posteurs

ManuDevil
6981
GroumpH
5098
nunch
3857
LeDupontesque
3068
jules
3026
Mandy
2883
Scratchy
2766
MAO
2493
snake
1947
Le0
1878

Top lanceurs de sujets

nunch
600
Morithil
398
ManuDevil
292
GroumpH
246
Scratchy
132
MAO
110
LeDupontesque
106
jules
99
snake
92
CCCP
86

Le plus de temps en ligne

Mandy
133 j 19 h 59 m
GroumpH
112 j 9 h 16 m
CCCP
88 j 6 h 11 m
Nukeflow
73 j 8 h 19 m
ManuDevil
69 j 18 m
Felipe
61 j 12 h 19 m
dao
56 j 17 h 58 m
nunch
49 j 1 h 47 m
Rh
42 j 23 h 32 m
Patate
42 j 15 h 38 m

Les utilisateurs les plus aimés

ManuDevil
48
Arkana31
31
LeDupontesque
18
Patate
11
Morithil
10
MJulien
6
Lightblaste
5
CCCP
5
apoxx
4
Bulwaid
4

Historique du forum (basé sur l'heure interne du forum)

Résumé annuel Nouveaux sujets Nouveaux messages Nouveaux membres Connexions simultanées Pages vues
* 2023 143 902 94 182 2618562
Septembre 2023 19 178 16 138 356009
Août 2023 8 42 7 130 236673
Juillet 2023 6 39 4 140 269774
Juin 2023 23 109 10 159 303581
Mai 2023 23 124 16 182 262587
Avril 2023 19 159 11 174 284480
Mars 2023 13 86 6 155 330966
Février 2023 13 62 5 165 274947
Janvier 2023 19 103 19 148 299545
* 2022 183 1154 96 261 3778792
Décembre 2022 9 37 1 161 306381
Novembre 2022 16 103 6 261 350274
Octobre 2022 11 120 17 208 290108
Septembre 2022 17 115 6 258 357415
Août 2022 15 108 9 147 318817
Juillet 2022 13 69 4 208 308045
Juin 2022 14 76 4 62 333112
Mai 2022 16 118 8 91 339244
Avril 2022 18 133 12 61 254691
2022-04-01 0 6 0 49 15444
2022-04-02 0 2 1 49 8967
2022-04-03 4 5 0 38 8148
2022-04-04 1 9 1 43 10158
2022-04-05 0 3 1 41 13979
2022-04-06 0 8 0 36 9247
2022-04-07 1 5 0 43 12333
2022-04-08 0 4 0 43 10696
2022-04-09 1 5 2 41 14859
2022-04-10 1 7 3 41 17217
2022-04-11 2 5 0 46 14030
2022-04-12 0 1 0 34 9483
2022-04-13 2 4 0 35 6925
2022-04-14 0 7 0 48 6203
2022-04-15 0 7 0 49 6464
2022-04-16 0 5 0 35 4327
2022-04-17 0 0 0 36 4954
2022-04-18 0 1 0 40 4048
2022-04-19 0 9 0 44 5344
2022-04-20 0 0 0 48 4153
2022-04-21 0 3 0 55 8132
2022-04-22 2 7 1 52 9959
2022-04-23 0 3 0 49 7655
2022-04-24 1 1 1 61 6931
2022-04-25 2 6 0 44 7260
2022-04-26 0 2 0 44 5849
2022-04-27 0 2 0 55 5585
2022-04-28 0 5 1 47 6009
2022-04-29 1 9 0 52 5398
2022-04-30 0 2 1 43 4934
Mars 2022 15 123 8 65 281935
Février 2022 17 84 9 58 314588
Janvier 2022 22 68 12 70 324182
* 2021 129 756 53 338 4376522
Décembre 2021 8 37 0 129 661064
Novembre 2021 13 99 4 153 262314
Octobre 2021 20 208 15 159 298103
Septembre 2021 24 171 10 280 285455
2021-09-01 0 3 2 36 8640
2021-09-02 4 5 0 37 5800
2021-09-03 0 10 1 36 5156
2021-09-04 0 2 0 36 6972
2021-09-05 0 1 0 43 4981
2021-09-06 1 11 0 41 6661
2021-09-07 1 12 0 46 10031
2021-09-08 1 4 0 41 12326
2021-09-09 0 5 0 49 26895
2021-09-10 0 6 1 59 9918
2021-09-11 0 3 0 44 5933
2021-09-12 1 6 1 39 4295
2021-09-13 1 6 0 44 7745
2021-09-14 3 10 0 47 10087
2021-09-15 3 18 1 280 10394
2021-09-16 1 7 1 161 10361
2021-09-17 0 4 0 190 12432
2021-09-18 0 2 0 188 15978
2021-09-19 0 2 0 253 13663
2021-09-20 0 1 0 200 15111
2021-09-21 1 3 1 125 8590
2021-09-22 2 6 0 160 8539
2021-09-23 0 0 1 147 9848
2021-09-24 1 4 0 66 9262
2021-09-25 1 6 0 105 6269
2021-09-26 0 7 1 111 9599
2021-09-27 1 7 0 103 8348
2021-09-28 2 15 0 77 7864
2021-09-29 0 5 0 118 7060
2021-09-30 0 0 0 102 6697
Août 2021 11 33 7 73 231609
2021-08-01 0 0 0 28 9012
2021-08-02 0 0 0 33 10340
2021-08-03 0 0 0 48 9087
2021-08-04 0 0 0 39 6385
2021-08-05 0 0 1 40 5603
2021-08-06 0 0 0 40 9211
2021-08-07 0 0 0 40 10577
2021-08-08 0 0 0 36 10060
2021-08-09 0 0 0 40 11728
2021-08-10 0 0 0 55 10109
2021-08-11 0 0 0 37 6508
2021-08-12 0 0 0 39 8136
2021-08-13 1 3 1 41 6454
2021-08-14 2 5 1 37 6972
2021-08-15 0 0 0 43 9840
2021-08-16 0 0 0 38 13142
2021-08-17 0 0 0 45 7592
2021-08-18 0 0 1 38 6557
2021-08-19 0 0 0 37 6038
2021-08-20 2 2 0 37 6461
2021-08-21 0 0 0 48 6027
2021-08-22 0 0 0 40 2939
2021-08-23 0 1 0 35 3225
2021-08-24 0 1 0 41 6669
2021-08-25 3 7 1 50 9922
2021-08-26 1 1 0 73 2986
2021-08-27 0 0 0 35 2451
2021-08-28 0 1 1 33 5309
2021-08-29 0 0 0 32 8982
2021-08-30 2 6 1 32 7294
2021-08-31 0 6 0 42 5993
Juillet 2021 6 8 2 81 305173
Juin 2021 17 31 2 135 311168
Mai 2021 3 31 4 268 597777
Avril 2021 10 51 6 287 308355
Mars 2021 7 24 1 308 444900
Février 2021 5 29 2 338 223056
Janvier 2021 5 34 0 322 447548
2021-01-01 0 0 0 65 8853
2021-01-02 0 0 0 61 7510
2021-01-03 0 0 0 56 8223
2021-01-04 2 2 0 67 8142
2021-01-05 0 3 0 56 8281
2021-01-06 0 4 0 55 5830
2021-01-07 0 2 0 55 4092
2021-01-08 0 2 0 53 3871
2021-01-09 0 0 0 70 5919
2021-01-10 0 0 0 78 9200
2021-01-11 1 2 0 66 7730
2021-01-12 0 1 0 71 7978
2021-01-13 0 1 0 64 8287
2021-01-14 0 2 0 80 7890
2021-01-15 0 0 0 85 9193
2021-01-16 0 0 0 83 10085
2021-01-17 0 3 0 81 9818
2021-01-18 0 5 0 82 10941
2021-01-19 1 1 0 86 9009
2021-01-20 0 2 0 322 13536
2021-01-21 0 1 0 81 24497
2021-01-22 0 0 0 79 141457
2021-01-23 0 0 0 85 10393
2021-01-24 0 0 0 84 11242
2021-01-25 1 1 0 80 10151
2021-01-26 0 0 0 93 10012
2021-01-27 0 1 0 88 10831
2021-01-28 0 0 0 87 11541
2021-01-29 0 1 0 81 9358
2021-01-30 0 0 0 72 23925
2021-01-31 0 0 0 67 19753
* 2020 206 1716 105 808 4713463
Décembre 2020 6 38 2 320 310487
2020-12-01 1 1 0 121 10809
2020-12-02 0 3 0 116 10099
2020-12-03 0 2 0 114 11876
2020-12-04 0 0 0 94 10791
2020-12-05 0 3 0 82 9574
2020-12-06 1 10 0 78 10653
2020-12-07 0 4 0 68 10998
2020-12-08 0 0 0 66 32260
2020-12-09 0 1 0 67 7435
2020-12-10 0 1 1 60 7610
2020-12-11 0 0 0 60 7643
2020-12-12 0 1 0 63 7412
2020-12-13 0 1 0 50 7185
2020-12-14 1 2 0 46 5821
2020-12-15 0 1 0 44 8427
2020-12-16 0 0 0 320 13083
2020-12-17 0 0 0 74 9703
2020-12-18 0 0 0 71 8569
2020-12-19 0 0 0 63 7390
2020-12-20 0 3 0 65 6819
2020-12-21 1 1 0 59 6108
2020-12-22 0 0 0 70 10438
2020-12-23 0 1 0 73 9331
2020-12-24 0 0 0 72 10558
2020-12-25 0 0 0 77 9826
2020-12-26 0 0 0 72 10399
2020-12-27 1 1 1 88 10008
2020-12-28 0 1 0 88 8712
2020-12-29 1 1 0 105 10795
2020-12-30 0 0 0 79 10368
2020-12-31 0 0 0 69 9787
Novembre 2020 12 97 3 352 464426
2020-11-01 0 1 0 116 10715
2020-11-02 2 3 0 125 9649
2020-11-03 0 7 0 102 10433
2020-11-04 0 0 0 95 11152
2020-11-05 0 3 0 92 11950
2020-11-06 1 4 0 86 9328
2020-11-07 0 9 0 79 13532
2020-11-08 0 4 0 97 10296
2020-11-09 1 6 0 85 10894
2020-11-10 0 5 0 79 6851
2020-11-11 0 1 0 83 6495
2020-11-12 0 1 0 86 10836
2020-11-13 0 1 0 80 9519
2020-11-14 0 0 0 72 8283
2020-11-15 0 2 0 77 8335
2020-11-16 3 10 1 78 9396
2020-11-17 0 1 0 104 10915
2020-11-18 1 2 0 352 16974
2020-11-19 0 4 0 95 11042
2020-11-20 1 4 2 87 10172
2020-11-21 0 1 0 87 9318
2020-11-22 1 7 0 81 8520
2020-11-23 0 2 0 86 12898
2020-11-24 0 3 0 101 11997
2020-11-25 0 2 0 113 14003
2020-11-26 1 3 0 108 12703
2020-11-27 0 6 0 90 63154
2020-11-28 0 1 0 92 102895
2020-11-29 0 2 0 105 11784
2020-11-30 1 2 0 116 10387
Octobre 2020 21 169 7 346 497422
Septembre 2020 30 356 15 133 325183
Août 2020 16 147 7 163 471897
2020-08-01 0 0 1 125 9376
2020-08-02 0 0 1 127 10771
2020-08-03 2 4 0 135 9364
2020-08-04 0 0 0 163 13035
2020-08-05 0 5 1 160 20546
2020-08-06 0 2 0 131 12711
2020-08-07 0 0 0 119 12203
2020-08-08 0 0 0 103 12458
2020-08-09 0 2 0 87 11220
2020-08-10 0 1 0 81 10362
2020-08-11 0 1 0 83 14026
2020-08-12 0 3 0 87 134172
2020-08-13 0 5 0 103 10481
2020-08-14 0 3 0 97 13299
2020-08-15 2 3 0 96 8890
2020-08-16 3 6 1 82 8258
2020-08-17 0 11 0 85 9541
2020-08-18 0 6 0 91 10678
2020-08-19 0 5 0 84 11112
2020-08-20 1 15 1 78 11469
2020-08-21 0 7 0 84 11326
2020-08-22 0 5 0 83 11201
2020-08-23 1 3 0 71 10011
2020-08-24 3 8 0 82 10392
2020-08-25 0 2 0 95 9967
2020-08-26 0 5 0 92 10480
2020-08-27 2 9 0 92 12374
2020-08-28 1 12 1 95 9959
2020-08-29 0 9 1 90 9439
2020-08-30 0 8 0 104 10776
2020-08-31 1 7 0 137 12000
Juillet 2020 16 77 2 100 345760
2020-07-01 0 3 0 53 15128
2020-07-02 0 0 0 50 14023
2020-07-03 0 0 0 54 10055
2020-07-04 0 1 0 54 7181
2020-07-05 1 2 0 53 7390
2020-07-06 2 4 0 53 12535
2020-07-07 0 0 0 57 13793
2020-07-08 1 3 1 56 12452
2020-07-09 1 5 0 96 12087
2020-07-10 0 5 0 98 12988
2020-07-11 0 0 0 88 11107
2020-07-12 0 2 0 83 8142
2020-07-13 0 4 0 76 10295
2020-07-14 1 2 0 78 11064
2020-07-15 2 3 0 76 12030
2020-07-16 1 13 0 84 10150
2020-07-17 0 2 0 65 10880
2020-07-18 0 1 0 68 11217
2020-07-19 0 1 0 74 13216
2020-07-20 1 6 1 100 12998
2020-07-21 0 6 0 93 11786
2020-07-22 3 6 0 73 9832
2020-07-23 1 1 0 78 11746
2020-07-24 0 1 0 90 11406
2020-07-25 0 1 0 83 9782
2020-07-26 0 0 0 93 11234
2020-07-27 2 3 0 93 9667
2020-07-28 0 0 0 98 10158
2020-07-29 0 1 0 94 10268
2020-07-30 0 1 0 93 11155
2020-07-31 0 0 0 88 9995
Juin 2020 17 60 5 127 452817
2020-06-01 0 1 0 97 7843
2020-06-02 7 8 0 99 6624
2020-06-03 0 0 0 116 9483
2020-06-04 0 0 0 127 10949
2020-06-05 0 0 0 54 8472
2020-06-06 0 0 0 60 11941
2020-06-07 0 3 0 60 62107
2020-06-08 0 1 1 59 116791
2020-06-09 0 1 0 67 15021
2020-06-10 2 6 0 51 11623
2020-06-11 0 0 0 50 8819
2020-06-12 0 0 0 54 9812
2020-06-13 0 0 1 57 9517
2020-06-14 0 1 0 54 10890
2020-06-15 2 5 0 50 11230
2020-06-16 0 3 0 66 11587
2020-06-17 0 0 1 53 7877
2020-06-18 0 0 0 53 7889
2020-06-19 0 0 0 47 8061
2020-06-20 0 1 0 49 10663
2020-06-21 0 0 0 49 8505
2020-06-22 0 2 0 51 8058
2020-06-23 0 1 0 50 9272
2020-06-24 1 7 1 59 9508
2020-06-25 0 4 0 53 9909
2020-06-26 0 1 0 53 10161
2020-06-27 0 0 1 58 11373
2020-06-28 0 0 0 63 8637
2020-06-29 5 12 0 67 8575
2020-06-30 0 3 0 56 11620
Mai 2020 7 22 3 295 321652
2020-05-01 0 0 1 256 14023
2020-05-02 1 1 0 203 11018
2020-05-03 0 0 0 196 11059
2020-05-04 0 1 0 219 12362
2020-05-05 0 0 0 118 9025
2020-05-06 0 0 1 207 9203
2020-05-07 0 4 0 226 9310
2020-05-08 0 0 0 247 12323
2020-05-09 0 2 0 241 11845
2020-05-10 0 4 0 245 13234
2020-05-11 0 1 0 238 7557
2020-05-12 0 1 0 241 9777
2020-05-13 0 1 0 295 11812
2020-05-14 6 6 0 249 13287
2020-05-15 0 0 0 226 13447
2020-05-16 0 0 0 172 12505
2020-05-17 0 0 0 120 10079
2020-05-18 0 0 0 130 10552
2020-05-19 0 0 0 131 10117
2020-05-20 0 1 0 107 7233
2020-05-21 0 0 1 52 7639
2020-05-22 0 0 0 51 9754
2020-05-23 0 0 0 57 7435
2020-05-24 0 0 0 57 7298
2020-05-25 0 0 0 74 5034
2020-05-26 0 0 0 82 7744
2020-05-27 0 0 0 107 11791
2020-05-28 0 0 0 100 9031
2020-05-29 0 0 0 104 9467
2020-05-30 0 0 0 108 15345
2020-05-31 0 0 0 116 11346
Avril 2020 10 47 1 189 300030
2020-04-01 1 10 0 107 11966
2020-04-02 0 2 0 114 10310
2020-04-03 0 1 0 103 9502
2020-04-04 0 2 0 128 9178
2020-04-05 0 0 0 114 10662
2020-04-06 4 7 0 109 8396
2020-04-07 0 3 0 117 8692
2020-04-08 0 0 0 104 13455
2020-04-09 0 1 0 114 10600
2020-04-10 0 0 0 112 7011
2020-04-11 0 0 0 101 8460
2020-04-12 1 2 0 120 10038
2020-04-13 0 1 0 108 11715
2020-04-14 0 1 0 107 13383
2020-04-15 0 1 0 93 9161
2020-04-16 1 2 0 99 8579
2020-04-17 0 0 0 106 6755
2020-04-18 0 2 0 96 7568
2020-04-19 0 0 0 113 5193
2020-04-20 0 0 0 189 9427
2020-04-21 0 0 0 183 10619
2020-04-22 0 1 0 157 9559
2020-04-23 1 2 0 99 9058
2020-04-24 0 5 0 99 9065
2020-04-25 0 0 0 97 8270
2020-04-26 0 0 0 94 26246
2020-04-27 0 0 1 93 9286
2020-04-28 1 2 0 100 8564
2020-04-29 1 2 0 105 9760
2020-04-30 0 0 0 120 9552
Mars 2020 24 253 3 199 467854
2020-03-01 0 7 0 104 10346
2020-03-02 0 5 0 126 6471
2020-03-03 3 17 1 107 4913
2020-03-04 0 10 0 116 5122
2020-03-05 1 12 0 143 8779
2020-03-06 0 9 0 144 11988
2020-03-07 0 2 0 123 11124
2020-03-08 0 5 0 122 13134
2020-03-09 0 10 0 117 13459
2020-03-10 2 5 0 114 11164
2020-03-11 0 4 0 105 8274
2020-03-12 0 10 0 199 11093
2020-03-13 0 9 0 186 12284
2020-03-14 1 11 0 189 12386
2020-03-15 1 12 1 189 11665
2020-03-16 1 3 0 173 10318
2020-03-17 0 8 0 116 9643
2020-03-18 0 2 0 107 8287
2020-03-19 0 4 0 105 10639
2020-03-20 0 0 0 116 10883
2020-03-21 0 4 0 114 10354
2020-03-22 0 0 0 119 9230
2020-03-23 3 9 0 112 6679
2020-03-24 0 7 0 113 47441
2020-03-25 0 10 0 107 140101
2020-03-26 5 9 0 119 6876
2020-03-27 1 6 0 154 6818
2020-03-28 1 16 0 114 7190
2020-03-29 2 20 0 105 6840
2020-03-30 1 13 0 121 11552
2020-03-31 2 14 1 117 12801
Février 2020 18 171 9 323 281798
Janvier 2020 29 279 48 808 474137
2020-01-01 0 12 0 120 10073
2020-01-02 1 9 0 127 13456
2020-01-03 3 8 5 120 7230
2020-01-04 1 7 2 109 7682
2020-01-05 0 6 2 116 7700
2020-01-06 2 9 1 122 10580
2020-01-07 0 2 3 120 7752
2020-01-08 1 11 3 117 8845
2020-01-09 2 13 1 115 11380
2020-01-10 0 6 1 106 9117
2020-01-11 0 9 0 188 8366
2020-01-12 3 17 3 120 9658
2020-01-13 0 10 1 268 9745
2020-01-14 2 5 3 625 12117
2020-01-15 0 1 0 587 10280
2020-01-16 0 15 2 597 12766
2020-01-17 2 17 3 575 11348
2020-01-18 0 9 2 108 11823
2020-01-19 0 8 1 132 7576
2020-01-20 0 2 0 589 7895
2020-01-21 0 4 1 808 8119
2020-01-22 4 9 0 507 11803
2020-01-23 0 1 1 383 6222
2020-01-24 1 15 1 244 6849
2020-01-25 0 2 1 110 7819
2020-01-26 2 13 2 118 38722
2020-01-27 0 6 3 116 167649
2020-01-28 2 11 3 108 7008
2020-01-29 2 13 1 114 7552
2020-01-30 0 17 0 111 7527
2020-01-31 1 12 2 106 9478
* 2019 246 3411 313 446 3308531
Décembre 2019 18 159 26 446 351248
Novembre 2019 16 245 33 325 524135
Octobre 2019 24 272 59 121 189762
Septembre 2019 25 386 54 141 376708
2019-09-01 1 9 2 105 6240
2019-09-02 2 23 0 99 4858
2019-09-03 0 2 3 113 5936
2019-09-04 1 23 3 106 6478
2019-09-05 1 13 2 101 4820
2019-09-06 0 19 1 107 6729
2019-09-07 1 7 1 101 5312
2019-09-08 2 30 3 112 7337
2019-09-09 0 11 1 102 5572
2019-09-10 0 11 0 100 7902
2019-09-11 0 19 4 106 7070
2019-09-12 0 9 1 93 5907
2019-09-13 0 17 1 104 5766
2019-09-14 1 20 1 106 8380
2019-09-15 1 21 1 99 8495
2019-09-16 0 10 3 103 4957
2019-09-17 0 4 3 101 4911
2019-09-18 1 7 3 123 86629
2019-09-19 0 12 0 124 109596
2019-09-20 0 17 2 141 8262
2019-09-21 0 10 0 140 7838
2019-09-22 1 6 2 112 6839
2019-09-23 6 10 3 97 8328
2019-09-24 1 9 3 94 5944
2019-09-25 0 8 0 97 4935
2019-09-26 0 12 4 97 6015
2019-09-27 2 11 0 99 7899
2019-09-28 3 18 4 99 4761
2019-09-29 1 9 2 92 4842
2019-09-30 0 9 1 98 8150
Août 2019 22 257 31 122 225760
2019-08-01 0 17 1 101 4722
2019-08-02 1 16 1 99 5527
2019-08-03 0 9 0 100 9242
2019-08-04 0 2 0 92 4700
2019-08-05 0 4 0 122 3678
2019-08-06 0 8 0 94 4677
2019-08-07 0 4 0 98 4369
2019-08-08 0 5 0 100 6221
2019-08-09 1 8 0 111 6677
2019-08-10 0 1 0 99 8730
2019-08-11 0 10 0 101 6982
2019-08-12 0 10 1 100 22525
2019-08-13 1 11 0 99 15601
2019-08-14 0 10 0 100 10146
2019-08-15 1 6 2 114 7279
2019-08-16 1 14 0 98 8935
2019-08-17 0 6 0 100 8964
2019-08-18 1 2 1 103 11513
2019-08-19 3 5 3 92 9363
2019-08-20 0 0 1 94 4320
2019-08-21 2 7 4 97 4019
2019-08-22 0 5 2 95 4156
2019-08-23 0 3 1 78 7584
2019-08-24 0 4 1 32 2644
2019-08-25 1 5 2 91 3521
2019-08-26 0 9 3 100 5440
2019-08-27 6 29 2 101 5306
2019-08-28 1 12 2 92 4748
2019-08-29 0 7 1 92 4376
2019-08-30 1 16 0 93 9018
2019-08-31 2 12 3 98 10777
Juillet 2019 24 281 62 149 190301
Juin 2019 11 171 3 112 246519
2019-06-01 0 1 0 103 2817
2019-06-02 0 1 0 97 2941
2019-06-03 0 3 0 91 6524
2019-06-04 0 14 0 87 11150
2019-06-05 0 8 0 90 9570
2019-06-06 0 5 0 99 10447
2019-06-07 1 16 1 109 8522
2019-06-08 0 5 1 93 5588
2019-06-09 0 8 0 92 4131
2019-06-10 1 8 0 93 4120
2019-06-11 1 5 1 105 29392
2019-06-12 0 4 0 102 13902
2019-06-13 0 1 0 98 5417
2019-06-14 0 5 0 104 10181
2019-06-15 0 0 0 99 11438
2019-06-16 0 4 0 93 9146
2019-06-17 1 3 0 99 7622
2019-06-18 0 0 0 104 9803
2019-06-19 2 4 0 102 8936
2019-06-20 0 2 0 106 7574
2019-06-21 0 5 0 100 7703
2019-06-22 0 6 0 103 7936
2019-06-23 0 9 0 108 6964
2019-06-24 4 13 0 102 5006
2019-06-25 0 4 0 103 3748
2019-06-26 0 6 0 112 7551
2019-06-27 0 10 0 104 6651
2019-06-28 0 10 0 93 7044
2019-06-29 0 3 0 100 8017
2019-06-30 1 8 0 102 6678
Mai 2019 23 311 10 167 218891
2019-05-01 0 0 0 42 7579
2019-05-02 1 11 0 51 5081
2019-05-03 1 30 0 46 4550
2019-05-04 2 30 2 68 9688
2019-05-05 2 23 0 62 9610
2019-05-06 0 14 0 63 6169
2019-05-07 0 7 0 52 3798
2019-05-08 1 9 0 91 6925
2019-05-09 1 9 1 98 10005
2019-05-10 1 8 1 45 9905
2019-05-11 7 14 0 46 10729
2019-05-12 0 10 1 136 10508
2019-05-13 1 10 0 167 10276
2019-05-14 0 1 1 165 13350
2019-05-15 0 11 1 129 11534
2019-05-16 0 18 0 132 11759
2019-05-17 0 8 0 99 8749
2019-05-18 1 12 0 104 3904
2019-05-19 1 4 0 27 2513
2019-05-20 2 14 1 30 3181
2019-05-21 0 11 0 29 2830
2019-05-22 0 8 0 121 4397
2019-05-23 0 10 0 120 5497
2019-05-24 0 3 0 115 10400
2019-05-25 0 10 0 104 7847
2019-05-26 0 5 0 102 6183
2019-05-27 2 9 0 107 8783
2019-05-28 0 8 0 98 4284
2019-05-29 0 2 1 102 3072
2019-05-30 0 0 0 91 2845
2019-05-31 0 2 1 93 2940
Avril 2019 21 294 9 174 311459
2019-04-01 1 11 0 174 7945
2019-04-02 3 24 0 122 7494
2019-04-03 1 14 0 142 9858
2019-04-04 0 8 0 139 10089
2019-04-05 0 2 0 133 12161
2019-04-06 1 12 1 133 7608
2019-04-07 0 6 0 120 7430
2019-04-08 1 14 1 135 8563
2019-04-09 0 13 0 137 16179
2019-04-10 2 17 0 144 19838
2019-04-11 1 14 1 138 21613
2019-04-12 0 14 0 119 19438
2019-04-13 1 11 3 51 7170
2019-04-14 0 4 0 64 8623
2019-04-15 0 0 0 61 10243
2019-04-16 0 1 0 55 8411
2019-04-17 0 2 0 72 6278
2019-04-18 1 9 0 62 9286
2019-04-19 2 8 0 70 7179
2019-04-20 0 5 0 129 4258
2019-04-21 0 11 1 152 3979
2019-04-22 2 7 0 170 5151
2019-04-23 0 9 0 59 8482
2019-04-24 0 17 0 78 9241
2019-04-25 1 13 2 57 13826
2019-04-26 0 6 0 58 15753
2019-04-27 0 2 0 47 12881
2019-04-28 3 17 0 58 10108
2019-04-29 1 20 0 57 11176
2019-04-30 0 3 0 58 11198
Mars 2019 22 372 16 142 344146
Février 2019 18 288 4 110 142132
Janvier 2019 22 375 6 113 187470
* 2018 338 6176 81 641 2624946
Décembre 2018 43 306 8 253 421582
2018-12-01 1 13 0 108 10961
2018-12-02 0 3 1 109 14766
2018-12-03 0 17 0 108 18344
2018-12-04 0 4 0 111 20929
2018-12-05 1 19 1 111 11950
2018-12-06 8 18 0 111 14660
2018-12-07 13 27 0 107 14549
2018-12-08 2 12 0 100 8121
2018-12-09 4 26 0 97 8912
2018-12-10 0 12 0 94 9173
2018-12-11 1 7 0 104 7972
2018-12-12 0 13 0 253 12240
2018-12-13 2 10 0 245 6172
2018-12-14 0 17 1 134 6149
2018-12-15 0 6 0 160 5846
2018-12-16 2 14 1 106 5984
2018-12-17 2 10 0 104 5353
2018-12-18 0 9 0 98 5314
2018-12-19 0 5 0 100 3727
2018-12-20 0 3 0 96 2596
2018-12-21 0 5 0 23 4142
2018-12-22 0 2 0 24 6219
2018-12-23 0 5 0 21 8400
2018-12-24 0 2 0 18 10302
2018-12-25 1 2 0 23 11913
2018-12-26 0 7 0 22 8611
2018-12-27 1 1 1 24 17549
2018-12-28 0 2 2 24 151295
2018-12-29 5 13 0 49 2922
2018-12-30 0 17 1 49 3800
2018-12-31 0 5 0 46 2711
Novembre 2018 26 467 9 641 383363
Octobre 2018 34 527 6 321 248725
Septembre 2018 34 641 10 127 216306
Août 2018 32 583 16 101 188648
Juillet 2018 21 386 3 104 182475
2018-07-01 0 17 0 98 5851
2018-07-02 0 3 1 93 5331
2018-07-03 0 9 0 102 6039
2018-07-04 3 21 0 95 8377
2018-07-05 0 5 0 89 5211
2018-07-06 5 16 0 94 5550
2018-07-07 0 10 0 92 5422
2018-07-08 0 12 0 94 7624
2018-07-09 1 11 1 93 5229
2018-07-10 1 8 0 93 5538
2018-07-11 0 19 0 86 5102
2018-07-12 0 9 1 84 4916
2018-07-13 0 17 0 82 5453
2018-07-14 0 9 0 90 4210
2018-07-15 0 7 0 82 5017
2018-07-16 0 26 0 90 8111
2018-07-17 1 19 0 102 5632
2018-07-18 4 27 0 102 6009
2018-07-19 1 28 0 99 6343
2018-07-20 1 15 0 104 6087
2018-07-21 1 13 0 93 6072
2018-07-22 1 24 0 91 5850
2018-07-23 0 12 0 97 6595
2018-07-24 0 5 0 94 4057
2018-07-25 0 5 0 96 6576
2018-07-26 1 2 0 92 6460
2018-07-27 0 11 0 89 6309
2018-07-28 0 4 0 91 6042
2018-07-29 0 5 0 93 5366
2018-07-30 1 4 0 94 6266
2018-07-31 0 13 0 87 5830
Juin 2018 31 442 3 110 213303
Mai 2018 21 422 4 107 174393
Avril 2018 25 564 5 104 159849
Mars 2018 20 634 4 96 152933
2018-03-01 0 7 0 20 8226
2018-03-02 0 23 0 16 1189
2018-03-03 0 28 0 19 1566
2018-03-04 1 44 0 21 1915
2018-03-05 0 11 0 17 1328
2018-03-06 0 10 0 75 1912
2018-03-07 1 21 0 89 4461
2018-03-08 0 18 0 83 4381
2018-03-09 0 14 0 94 4761
2018-03-10 0 22 0 87 5080
2018-03-11 1 24 0 90 6619
2018-03-12 4 69 2 79 4642
2018-03-13 2 36 1 88 5239
2018-03-14 1 25 0 90 4987
2018-03-15 2 9 0 81 4572
2018-03-16 0 7 0 77 4268
2018-03-17 0 9 0 81 4271
2018-03-18 0 13 0 91 4435
2018-03-19 2 12 0 79 4301
2018-03-20 0 30 0 87 4317
2018-03-21 0 7 0 86 4027
2018-03-22 1 19 0 84 4514
2018-03-23 0 14 0 91 4486
2018-03-24 0 6 0 81 4292
2018-03-25 0 11 0 78 4516
2018-03-26 2 16 0 86 4584
2018-03-27 0 7 0 80 4375
2018-03-28 0 22 0 80 4705
2018-03-29 0 27 0 79 4483
2018-03-30 1 40 1 82 4671
2018-03-31 2 33 0 96 25810
Février 2018 25 631 7 93 121912
Janvier 2018 26 573 6 94 161457
2018-01-01 1 13 0 81 3873
2018-01-02 0 35 0 86 4281
2018-01-03 0 16 0 84 4474
2018-01-04 0 12 0 88 3657
2018-01-05 0 25 0 83 5021
2018-01-06 1 14 1 84 5114
2018-01-07 3 35 0 78 5039
2018-01-08 0 12 0 91 4838
2018-01-09 2 43 1 88 5141
2018-01-10 0 18 0 87 5299
2018-01-11 0 6 0 74 2983
2018-01-12 1 12 1 15 1584
2018-01-13 4 36 0 18 1661
2018-01-14 2 33 0 27 2978
2018-01-15 0 10 0 22 2126
2018-01-16 0 19 0 18 1286
2018-01-17 0 6 0 16 1525
2018-01-18 0 13 1 77 2416
2018-01-19 0 24 0 88 4882
2018-01-20 1 10 0 83 4920
2018-01-21 0 14 0 86 5414
2018-01-22 0 15 0 88 5074
2018-01-23 0 21 0 91 4662
2018-01-24 1 8 0 17 13946
2018-01-25 0 11 0 80 24972
2018-01-26 0 13 0 91 3885
2018-01-27 2 12 2 85 6401
2018-01-28 6 32 0 92 7019
2018-01-29 1 12 0 86 5701
2018-01-30 0 20 0 94 5869
2018-01-31 1 23 0 88 5416
* 2017 346 6100 56 180 1675168
Décembre 2017 37 499 6 91 136063
Novembre 2017 37 675 6 93 169670
Octobre 2017 15 426 2 93 151449
Septembre 2017 28 548 5 94 135543
Août 2017 29 384 6 99 148097
2017-08-01 0 9 0 68 3543
2017-08-02 0 12 1 66 2932
2017-08-03 0 7 0 64 3100
2017-08-04 1 8 0 83 3375
2017-08-05 1 8 0 81 4004
2017-08-06 2 6 1 80 3731
2017-08-07 6 14 1 85 3850
2017-08-08 2 3 0 76 4998
2017-08-09 0 13 1 72 4403
2017-08-10 3 6 0 75 3696
2017-08-11 0 6 0 74 2479
2017-08-12 0 7 0 81 4043
2017-08-13 0 9 0 73 4128
2017-08-14 0 14 0 73 3594
2017-08-15 2 7 0 71 3835
2017-08-16 1 11 0 70 3779
2017-08-17 0 13 0 82 3941
2017-08-18 0 7 0 82 3689
2017-08-19 0 8 0 19 1560
2017-08-20 0 11 0 85 2353
2017-08-21 0 15 0 99 4536
2017-08-22 2 37 0 91 4987
2017-08-23 0 13 0 81 4153
2017-08-24 5 24 0 87 5297
2017-08-25 1 31 0 79 4356
2017-08-26 0 12 0 85 4846
2017-08-27 1 23 0 83 6285
2017-08-28 0 21 0 98 6070
2017-08-29 0 5 0 85 5964
2017-08-30 1 14 1 79 25924
2017-08-31 1 10 1 82 4646
Juillet 2017 25 490 5 87 176472
Juin 2017 33 603 4 89 156248
Mai 2017 26 470 2 99 181189
Avril 2017 31 490 5 180 139896
Mars 2017 27 432 3 119 90981
Février 2017 31 587 7 87 74924
Janvier 2017 27 496 5 80 114636
* 2016 389 7721 79 245 2075605
Décembre 2016 34 533 2 170 118206
2016-12-01 0 1 0 74 3445
2016-12-02 0 8 0 55 3761
2016-12-03 0 7 0 58 2184
2016-12-04 9 30 0 53 2958
2016-12-05 0 35 0 65 4219
2016-12-06 2 23 0 64 3665
2016-12-07 1 23 0 60 4594
2016-12-08 2 17 0 125 6276
2016-12-09 1 21 0 76 3458
2016-12-10 2 15 2 61 3661
2016-12-11 1 37 0 68 3369
2016-12-12 3 11 0 63 2902
2016-12-13 0 10 0 59 3821
2016-12-14 1 18 0 74 4666
2016-12-15 0 18 0 72 3378
2016-12-16 1 19 0 35 2487
2016-12-17 0 8 0 73 2573
2016-12-18 0 11 0 81 15525
2016-12-19 1 15 0 61 3437
2016-12-20 0 9 0 56 3667
2016-12-21 0 15 0 54 2974
2016-12-22 0 25 0 56 2993
2016-12-23 0 13 0 56 3867
2016-12-24 0 10 0 55 2712
2016-12-25 1 11 0 170 3278
2016-12-26 3 10 0 72 3609
2016-12-27 3 23 0 59 2265
2016-12-28 1 21 0 51 3618
2016-12-29 0 34 0 55 2903
2016-12-30 2 13 0 58 3351
2016-12-31 0 22 0 54 2590
Novembre 2016 34 586 6 245 122991
Octobre 2016 43 726 7 191 160217
Septembre 2016 26 657 9 85 157449
2016-09-01 0 6 0 74 4766
2016-09-02 0 11 0 20 3957
2016-09-03 2 15 0 24 5392
2016-09-04 2 24 2 27 6016
2016-09-05 1 48 0 60 6378
2016-09-06 0 19 0 64 16148
2016-09-07 0 25 0 29 5865
2016-09-08 0 8 1 28 2521
2016-09-09 2 25 2 66 4139
2016-09-10 1 13 0 57 3591
2016-09-11 0 20 0 52 3703
2016-09-12 5 46 2 56 3958
2016-09-13 2 32 0 56 4310
2016-09-14 1 36 0 57 3961
2016-09-15 0 20 0 54 3639
2016-09-16 0 8 0 85 5882
2016-09-17 1 17 1 63 4479
2016-09-18 1 37 0 55 4935
2016-09-19 1 18 0 55 4541
2016-09-20 2 43 0 53 6073
2016-09-21 0 23 0 43 3742
2016-09-22 1 18 1 53 4611
2016-09-23 0 15 0 70 4243
2016-09-24 0 18 0 70 5283
2016-09-25 2 19 0 59 15111
2016-09-26 0 12 0 62 4202
2016-09-27 1 10 0 55 4151
2016-09-28 1 28 0 55 4096
2016-09-29 0 24 0 58 3581
2016-09-30 0 19 0 55 4175
Août 2016 31 721 9 114 169873
Juillet 2016 19 513 3 58 166690
Juin 2016 30 565 5 53 211715
Mai 2016 40 1116 8 94 166514
Avril 2016 27 529 7 65 155208
Mars 2016 35 513 11 88 224056
Février 2016 35 640 4 96 192454
Janvier 2016 35 622 8 95 230232
* 2015 373 6684 79 100 1549803
Décembre 2015 28 499 7 68 140303
2015-12-01 0 25 0 16 2350
2015-12-02 0 13 0 16 2355
2015-12-03 1 32 1 21 3677
2015-12-04 0 20 0 17 2064
2015-12-05 0 16 1 21 3894
2015-12-06 0 13 0 20 5745
2015-12-07 0 6 0 35 3625
2015-12-08 1 17 0 32 4443
2015-12-09 0 4 0 35 7622
2015-12-10 1 6 0 32 5400
2015-12-11 0 19 0 35 19913
2015-12-12 1 21 1 25 3299
2015-12-13 7 38 0 30 4377
2015-12-14 0 26 0 27 3642
2015-12-15 2 29 1 32 5486
2015-12-16 4 39 0 37 6111
2015-12-17 0 14 0 18 3269
2015-12-18 0 17 0 13 2944
2015-12-19 1 16 0 18 3387
2015-12-20 0 14 0 17 3339
2015-12-21 0 2 0 14 2174
2015-12-22 0 0 1 21 3147
2015-12-23 2 10 0 14 2552
2015-12-24 1 11 0 43 2912
2015-12-25 2 20 0 13 2346
2015-12-26 0 10 0 12 2235
2015-12-27 1 11 0 10 6406
2015-12-28 3 29 1 65 5360
2015-12-29 0 2 1 53 4266
2015-12-30 1 12 0 68 5376
2015-12-31 0 7 0 57 6587
Novembre 2015 40 724 5 35 146607
Octobre 2015 32 760 10 84 227528
Septembre 2015 40 948 13 100 169012
2015-09-01 3 40 0 23 4812
2015-09-02 0 52 2 72 5791
2015-09-03 0 21 0 16 4722
2015-09-04 2 20 1 67 4506
2015-09-05 2 40 2 79 8360
2015-09-06 1 58 0 21 4206
2015-09-07 0 27 1 17 3924
2015-09-08 6 44 0 100 9516
2015-09-09 1 26 0 74 6952
2015-09-10 0 37 1 73 5976
2015-09-11 0 43 0 80 7212
2015-09-12 0 23 0 81 5584
2015-09-13 0 30 0 74 5189
2015-09-14 1 25 1 19 3457
2015-09-15 2 18 0 20 2649
2015-09-16 1 23 0 62 4565
2015-09-17 0 10 0 59 5055
2015-09-18 0 36 0 72 4251
2015-09-19 1 36 0 73 4774
2015-09-20 1 41 1 69 4977
2015-09-21 1 23 0 75 11093
2015-09-22 6 28 1 22 3585
2015-09-23 0 33 0 65 5593
2015-09-24 1 42 0 71 5489
2015-09-25 3 24 0 17 3955
2015-09-26 2 25 1 77 5774
2015-09-27 3 47 1 88 6711
2015-09-28 2 34 0 79 7065
2015-09-29 0 6 0 27 5105
2015-09-30 1 36 1 85 8164
Août 2015 36 566 12 61 119954
Juillet 2015 29 462 7 31 89666
2015-07-01 0 4 0 13 1257
2015-07-02 1 2 0 14 1570
2015-07-03 3 24 0 19 2798
2015-07-04 0 8 0 18 2278
2015-07-05 0 18 2 17 3771
2015-07-06 3 52 0 23 5662
2015-07-07 0 9 0 19 4584
2015-07-08 0 10 0 18 3475
2015-07-09 2 21 0 16 2090
2015-07-10 0 7 0 18 2685
2015-07-11 0 9 0 16 2150
2015-07-12 0 17 0 21 2665
2015-07-13 0 12 0 21 3531
2015-07-14 1 11 0 19 5009
2015-07-15 2 17 0 19 5094
2015-07-16 1 20 0 18 4130
2015-07-17 0 11 0 18 3208
2015-07-18 2 15 1 21 3167
2015-07-19 0 22 0 16 2520
2015-07-20 0 13 0 16 2374
2015-07-21 0 8 1 18 2140
2015-07-22 1 19 0 14 2340
2015-07-23 5 18 1 19 2644
2015-07-24 2 29 1 19 2376
2015-07-25 1 26 0 20 2151
2015-07-26 1 15 0 31 2342
2015-07-27 2 8 1 17 1660
2015-07-28 0 16 0 14 2104
2015-07-29 0 8 0 13 2648
2015-07-30 2 6 0 17 2245
2015-07-31 0 7 0 15 2998
Juin 2015 24 453 5 30 112317
2015-06-01 1 21 1 25 4795
2015-06-02 0 13 0 13 1648
2015-06-03 1 16 1 14 4304
2015-06-04 1 25 0 14 3105
2015-06-05 0 20 0 15 1807
2015-06-06 1 21 0 17 2532
2015-06-07 4 18 0 16 1899
2015-06-08 0 12 0 14 2343
2015-06-09 1 10 0 18 2371
2015-06-10 0 10 0 20 7902
2015-06-11 1 19 0 11 4495
2015-06-12 0 7 0 13 1558
2015-06-13 1 6 0 13 1791
2015-06-14 0 11 0 14 2048
2015-06-15 3 13 0 19 1997
2015-06-16 0 10 0 18 1599
2015-06-17 1 17 0 17 2018
2015-06-18 0 13 0 12 1641
2015-06-19 0 7 0 15 1876
2015-06-20 0 9 0 12 1521
2015-06-21 0 10 0 15 1695
2015-06-22 1 19 0 16 2896
2015-06-23 1 23 1 22 11490
2015-06-24 2 23 0 30 13135
2015-06-25 0 11 0 18 9448
2015-06-26 3 23 0 20 11127
2015-06-27 0 7 0 17 2548
2015-06-28 0 5 0 13 2651
2015-06-29 2 29 2 18 2252
2015-06-30 0 25 0 19 1825
Mai 2015 30 390 2 24 73874
2015-05-01 0 17 0 15 2030
2015-05-02 1 16 0 16 2557
2015-05-03 1 29 0 18 2371
2015-05-04 2 17 0 21 1947
2015-05-05 0 2 0 16 1636
2015-05-06 0 8 0 15 2047
2015-05-07 0 6 0 14 2022
2015-05-08 0 3 0 15 1847
2015-05-09 0 5 0 18 1813
2015-05-10 2 5 0 13 1887
2015-05-11 0 6 0 14 1631
2015-05-12 2 20 1 13 2423
2015-05-13 0 11 0 13 2977
2015-05-14 0 11 0 24 3549
2015-05-15 2 11 0 18 2773
2015-05-16 1 3 1 15 2585
2015-05-17 0 6 0 12 2212
2015-05-18 4 29 0 14 2715
2015-05-19 0 8 0 15 1683
2015-05-20 0 3 0 12 1911
2015-05-21 1 4 0 13 2338
2015-05-22 1 8 0 12 1807
2015-05-23 1 6 0 15 2186
2015-05-24 2 15 0 19 4554
2015-05-25 1 21 0 24 2499
2015-05-26 2 20 0 18 2489
2015-05-27 0 21 0 17 1695
2015-05-28 3 38 0 14 2854
2015-05-29 4 23 0 15 4584
2015-05-30 0 13 0 16 1591
2015-05-31 0 5 0 11 2661
Avril 2015 29 408 4 25 95371
Mars 2015 38 550 7 37 130116
2015-03-01 6 23 0 17 2804
2015-03-02 1 11 0 19 6535
2015-03-03 1 24 0 20 7827
2015-03-04 1 8 0 21 6847
2015-03-05 2 12 0 18 4653
2015-03-06 2 23 1 37 2453
2015-03-07 0 10 0 14 2686
2015-03-08 0 19 0 14 2573
2015-03-09 1 20 0 16 2393
2015-03-10 1 14 1 14 2610
2015-03-11 0 8 0 20 2571
2015-03-12 1 14 0 18 2502
2015-03-13 0 16 0 20 3764
2015-03-14 0 8 0 20 4537
2015-03-15 3 22 1 19 5142
2015-03-16 0 8 0 14 2163
2015-03-17 0 16 0 15 1726
2015-03-18 0 2 0 14 1638
2015-03-19 2 12 0 21 4946
2015-03-20 2 14 1 21 7189
2015-03-21 2 27 1 20 9145
2015-03-22 1 11 0 27 8492
2015-03-23 6 18 1 21 6865
2015-03-24 1 23 1 17 4732
2015-03-25 0 36 0 24 3346
2015-03-26 1 33 0 19 3386
2015-03-27 0 12 0 18 3367
2015-03-28 0 8 0 20 4407
2015-03-29 4 47 0 17 4241
2015-03-30 0 38 0 15 2577
2015-03-31 0 13 0 24 1999
Février 2015 15 434 2 24 123854
Janvier 2015 32 490 5 44 121201
2015-01-01 2 23 0 19 3144
2015-01-02 0 16 0 15 4048
2015-01-03 0 15 0 22 3759
2015-01-04 0 4 0 19 3288
2015-01-05 2 20 0 15 4716
2015-01-06 0 5 0 22 4665
2015-01-07 7 37 1 20 4235
2015-01-08 0 17 0 18 5827
2015-01-09 2 10 0 21 3910
2015-01-10 0 16 0 18 3671
2015-01-11 0 8 0 20 4832
2015-01-12 4 17 0 21 3973
2015-01-13 2 14 0 14 2410
2015-01-14 0 16 0 15 3118
2015-01-15 2 38 1 17 3532
2015-01-16 0 23 0 18 3617
2015-01-17 0 13 0 17 2699
2015-01-18 2 13 0 18 3678
2015-01-19 5 16 0 16 3676
2015-01-20 0 12 1 19 3624
2015-01-21 1 12 0 20 2778
2015-01-22 0 8 1 16 6250
2015-01-23 1 18 0 18 2801
2015-01-24 0 14 0 44 3349
2015-01-25 0 8 0 18 6193
2015-01-26 0 25 0 21 4761
2015-01-27 1 23 1 18 6578
2015-01-28 0 4 0 16 2032
2015-01-29 0 15 0 15 3742
2015-01-30 0 16 0 13 2970
2015-01-31 1 14 0 14 3325
* 2014 428 7364 58 58 2478164
Décembre 2014 24 360 4 33 191610
Novembre 2014 37 572 7 46 525858
Octobre 2014 45 928 8 58 364915
2014-10-01 2 17 0 19 4681
2014-10-02 1 19 0 20 4689
2014-10-03 2 14 0 14 3669
2014-10-04 0 5 0 17 3255
2014-10-05 0 1 0 19 2928
2014-10-06 0 11 0 21 3996
2014-10-07 3 25 1 20 3179
2014-10-08 2 38 0 25 5334
2014-10-09 2 52 0 23 6395
2014-10-10 4 54 1 20 5653
2014-10-11 0 14 0 27 6513
2014-10-12 4 38 0 20 4101
2014-10-13 1 60 1 23 7192
2014-10-14 1 40 1 21 5942
2014-10-15 0 50 0 19 8910
2014-10-16 4 67 1 20 7064
2014-10-17 2 59 0 24 7070
2014-10-18 0 8 0 18 8711
2014-10-19 1 18 0 14 7781
2014-10-20 3 75 2 22 5872
2014-10-21 2 43 0 21 6010
2014-10-22 1 17 0 21 7505
2014-10-23 2 34 0 20 6639
2014-10-24 0 22 0 19 8041
2014-10-25 2 16 0 24 10924
2014-10-26 0 21 0 32 24155
2014-10-27 0 16 0 41 31060
2014-10-28 2 11 1 40 35764
2014-10-29 3 46 0 58 43273
2014-10-30 1 31 0 54 39908
2014-10-31 0 6 0 53 38701
Septembre 2014 24 549 8 32 162413
2014-09-01 1 8 0 24 5910
2014-09-02 1 12 0 23 5619
2014-09-03 0 4 0 29 5993
2014-09-04 2 39 1 24 6382
2014-09-05 1 16 0 25 7071
2014-09-06 0 24 0 32 5116
2014-09-07 1 14 0 17 3343
2014-09-08 1 16 0 16 2841
2014-09-09 1 12 0 23 5898
2014-09-10 1 41 0 27 4745
2014-09-11 3 21 0 23 5234
2014-09-12 2 33 1 25 5243
2014-09-13 0 7 0 21 4951
2014-09-14 1 7 1 18 4734
2014-09-15 0 29 0 21 5744
2014-09-16 0 14 0 18 4638
2014-09-17 0 10 0 19 5146
2014-09-18 0 13 0 21 5364
2014-09-19 0 8 0 21 5709
2014-09-20 0 9 1 19 4470
2014-09-21 3 26 1 19 5891
2014-09-22 0 13 0 19 5025
2014-09-23 1 22 0 20 6398
2014-09-24 0 23 1 19 6006
2014-09-25 0 16 0 22 5732
2014-09-26 0 7 0 21 4404
2014-09-27 1 19 1 23 4732
2014-09-28 2 30 1 27 5640
2014-09-29 2 36 0 25 7160
2014-09-30 0 20 0 31 7274
Août 2014 17 251 4 27 191624
Juillet 2014 25 369 3 30 236312
Juin 2014 29 602 3 32 220918
Mai 2014 34 842 6 29 157174
Avril 2014 45 662 1 25 104486
Mars 2014 32 595 4 26 120439
2014-03-01 0 12 1 20 3786
2014-03-02 1 4 1 24 3590
2014-03-03 0 7 0 20 2446
2014-03-04 0 23 0 20 3629
2014-03-05 2 22 0 21 3661
2014-03-06 1 18 0 20 2585
2014-03-07 0 15 0 23 2700
2014-03-08 1 13 0 21 2461
2014-03-09 0 4 0 19 2983
2014-03-10 0 19 0 16 2791
2014-03-11 1 19 0 19 3130
2014-03-12 0 16 0 21 3522
2014-03-13 1 31 0 22 5550
2014-03-14 0 16 0 26 4818
2014-03-15 1 11 0 21 5306
2014-03-16 4 19 0 24 6026
2014-03-17 3 25 0 20 3862
2014-03-18 2 35 0 22 5721
2014-03-19 0 19 0 21 4981
2014-03-20 1 25 1 18 3637
2014-03-21 1 27 0 24 5005
2014-03-22 1 13 0 20 4151
2014-03-23 4 27 0 20 5982
2014-03-24 2 46 0 21 4374
2014-03-25 0 26 0 18 2690
2014-03-26 2 23 1 19 3653
2014-03-27 0 19 0 20 3562
2014-03-28 3 18 0 20 3984
2014-03-29 0 17 0 17 3432
2014-03-30 0 7 0 17 2121
2014-03-31 1 19 0 18 4300
Février 2014 24 660 5 28 102996
Janvier 2014 92 974 5 33 99419
* 2013 408 8887 76 89 1597727
Décembre 2013 36 785 2 79 132305
2013-12-01 3 40 0 21 5124
2013-12-02 0 18 0 23 3630
2013-12-03 1 22 0 18 2691
2013-12-04 0 21 0 20 2917
2013-12-05 2 34 1 74 3596
2013-12-06 0 14 0 29 4033
2013-12-07 0 11 0 21 3141
2013-12-08 2 50 0 20 11319
2013-12-09 3 47 0 79 15790
2013-12-10 0 42 0 40 6438
2013-12-11 0 29 0 23 4171
2013-12-12 1 32 0 22 3225
2013-12-13 1 21 0 26 3543
2013-12-14 0 11 0 23 4807
2013-12-15 0 20 0 17 3540
2013-12-16 5 50 0 22 4009
2013-12-17 2 27 0 23 3856
2013-12-18 1 53 0 23 4339
2013-12-19 0 23 0 18 3138
2013-12-20 0 5 0 16 1779
2013-12-21 1 26 0 22 3370
2013-12-22 3 27 0 22 4250
2013-12-23 0 7 1 16 2431
2013-12-24 1 16 0 14 2139
2013-12-25 1 20 0 14 2448
2013-12-26 0 14 0 17 3918
2013-12-27 0 31 0 27 3690
2013-12-28 2 32 0 22 4302
2013-12-29 2 16 0 19 3362
2013-12-30 3 13 0 15 3871
2013-12-31 2 13 0 19 3438
Novembre 2013 36 751 8 29 141119
Octobre 2013 37 683 10 26 116570
Septembre 2013 33 723 15 29 160779
2013-09-01 0 57 0 19 3222
2013-09-02 2 24 0 21 3211
2013-09-03 1 22 0 19 3225
2013-09-04 2 24 2 21 14311
2013-09-05 1 19 0 17 22207
2013-09-06 3 23 2 21 13976
2013-09-07 1 51 2 24 20435
2013-09-08 1 34 0 24 10968
2013-09-09 0 22 0 18 2939
2013-09-10 2 30 0 18 3194
2013-09-11 1 27 1 18 2264
2013-09-12 2 15 0 17 3642
2013-09-13 0 12 0 19 3775
2013-09-14 2 24 0 20 3850
2013-09-15 0 22 1 19 2626
2013-09-16 0 19 0 13 7428
2013-09-17 1 29 2 16 3178
2013-09-18 3 37 1 20 2878
2013-09-19 0 26 0 25 3592
2013-09-20 0 23 0 20 2807
2013-09-21 1 8 0 18 2488
2013-09-22 0 15 0 12 1533
2013-09-23 0 22 1 23 2729
2013-09-24 0 11 0 25 2352
2013-09-25 2 32 1 29 3227
2013-09-26 2 22 0 26 3451
2013-09-27 1 26 2 19 3427
2013-09-28 4 11 0 22 2817
2013-09-29 1 16 0 12 1720
2013-09-30 0 20 0 22 3307
Août 2013 20 356 4 30 113960
2013-08-01 0 1 0 17 6165
2013-08-02 2 10 1 30 3363
2013-08-03 0 4 0 18 3801
2013-08-04 1 6 0 15 4126
2013-08-05 2 13 0 22 3858
2013-08-06 0 8 0 17 5385
2013-08-07 0 5 0 17 3665
2013-08-08 0 10 0 18 3057
2013-08-09 0 6 0 18 4374
2013-08-10 1 2 0 16 4563
2013-08-11 0 9 0 17 4114
2013-08-12 0 1 0 20 4489
2013-08-13 1 17 0 19 4829
2013-08-14 0 7 0 15 2333
2013-08-15 0 2 0 14 2977
2013-08-16 0 1 0 15 4833
2013-08-17 0 2 0 13 3056
2013-08-18 0 7 0 13 2784
2013-08-19 1 3 0 12 3124
2013-08-20 1 8 0 13 2097
2013-08-21 0 10 0 14 2180
2013-08-22 0 9 0 15 2515
2013-08-23 0 13 1 23 3032
2013-08-24 2 21 0 14 2563
2013-08-25 1 8 0 14 2604
2013-08-26 1 13 0 14 1978
2013-08-27 1 22 0 18 2519
2013-08-28 0 30 0 14 3594
2013-08-29 0 26 1 17 2491
2013-08-30 2 41 1 20 8436
2013-08-31 4 41 0 22 5055
Juillet 2013 21 331 2 24 120164
2013-07-01 0 9 0 24 4330
2013-07-02 1 11 0 16 2693
2013-07-03 4 28 0 23 4775
2013-07-04 2 26 0 16 4174
2013-07-05 0 16 0 20 4074
2013-07-06 0 8 0 21 4135
2013-07-07 1 6 0 17 2726
2013-07-08 1 11 0 17 4747
2013-07-09 0 9 0 18 3831
2013-07-10 0 5 0 16 3040
2013-07-11 1 6 0 19 4713
2013-07-12 1 16 0 19 4099
2013-07-13 0 3 0 14 4400
2013-07-14 0 2 0 15 3941
2013-07-15 0 2 0 15 3367
2013-07-16 1 4 0 18 4261
2013-07-17 2 23 0 22 3788
2013-07-18 0 16 0 15 3415
2013-07-19 1 2 0 16 2111
2013-07-20 1 7 0 17 1889
2013-07-21 0 5 0 18 4035
2013-07-22 2 21 0 15 10438
2013-07-23 0 9 1 18 4311
2013-07-24 1 12 0 15 4353
2013-07-25 1 15 0 24 3021
2013-07-26 0 10 0 20 4122
2013-07-27 1 12 0 12 2914
2013-07-28 0 7 0 17 2977
2013-07-29 0 13 0 19 2352
2013-07-30 0 9 1 17 2615
2013-07-31 0 8 0 18 4517
Juin 2013 40 731 5 34 119512
Mai 2013 34 881 3 47 157484
2013-05-01 0 15 0 18 4248
2013-05-02 0 9 0 19 6085
2013-05-03 0 16 0 17 4788
2013-05-04 2 16 0 20 4230
2013-05-05 2 34 0 24 4982
2013-05-06 2 53 0 21 4256
2013-05-07 0 38 0 21 4459
2013-05-08 3 29 0 21 4111
2013-05-09 0 36 0 31 5286
2013-05-10 0 28 0 47 6457
2013-05-11 2 28 0 18 5554
2013-05-12 1 35 0 17 4775
2013-05-13 2 40 0 19 8701
2013-05-14 2 34 0 19 5271
2013-05-15 2 34 0 18 4752
2013-05-16 0 40 0 20 6246
2013-05-17 1 24 1 20 5171
2013-05-18 2 12 0 18 5484
2013-05-19 1 36 0 22 3824
2013-05-20 0 9 0 20 5481
2013-05-21 0 4 0 17 6094
2013-05-22 1 21 0 17 4610
2013-05-23 1 14 0 18 5776
2013-05-24 0 22 0 18 5736
2013-05-25 0 8 0 17 3869
2013-05-26 1 32 0 20 4951
2013-05-27 3 26 0 18 5140
2013-05-28 0 33 0 21 3623
2013-05-29 1 34 0 18 3927
2013-05-30 4 51 2 18 4466
2013-05-31 1 70 0 20 5131
Avril 2013 38 799 8 33 124279
Mars 2013 40 1111 9 62 147762
2013-03-01 0 12 0 51 6549
2013-03-02 1 13 0 37 4543
2013-03-03 2 43 0 37 3584
2013-03-04 0 47 0 48 5492
2013-03-05 1 28 2 43 10235
2013-03-06 0 23 1 23 5242
2013-03-07 1 25 0 17 2873
2013-03-08 2 34 0 22 3808
2013-03-09 2 35 1 15 3643
2013-03-10 4 41 0 43 3470
2013-03-11 1 26 0 30 4367
2013-03-12 0 34 1 21 4299
2013-03-13 3 59 0 24 4126
2013-03-14 3 38 0 18 4289
2013-03-15 1 63 1 18 4539
2013-03-16 0 26 0 16 3540
2013-03-17 1 34 0 18 3678
2013-03-18 1 70 0 62 5572
2013-03-19 4 21 1 27 3636
2013-03-20 1 43 1 33 6483
2013-03-21 2 43 0 23 5533
2013-03-22 0 29 0 24 4112
2013-03-23 3 17 0 20 3638
2013-03-24 3 68 0 23 4766
2013-03-25 0 41 1 22 8947
2013-03-26 3 50 0 20 6590
2013-03-27 0 39 0 27 3966
2013-03-28 0 37 0 24 5372
2013-03-29 0 42 0 19 5271
2013-03-30 1 17 0 14 2181
2013-03-31 0 13 0 18 3418
Février 2013 32 838 5 79 125299
Janvier 2013 41 898 5 89 138494
* 2012 446 10690 67 157 1274957
Décembre 2012 57 1411 4 45 150137
Novembre 2012 46 1137 8 25 112399
Octobre 2012 45 1068 7 25 80970
Septembre 2012 37 876 11 38 107023
Août 2012 30 595 5 41 95032
2012-08-01 1 10 0 13 3408
2012-08-02 0 21 0 19 2532
2012-08-03 0 19 0 15 2650
2012-08-04 0 3 0 14 1909
2012-08-05 0 5 0 12 1913
2012-08-06 1 18 1 15 2288
2012-08-07 0 13 0 15 2613
2012-08-08 2 12 0 13 3743
2012-08-09 1 27 0 14 3247
2012-08-10 0 14 0 41 3163
2012-08-11 2 20 1 20 2655
2012-08-12 0 22 0 13 2610
2012-08-13 2 54 1 18 3586
2012-08-14 1 22 0 15 3230
2012-08-15 1 15 0 15 2618
2012-08-16 3 23 0 14 3024
2012-08-17 0 7 0 19 3643
2012-08-18 0 4 0 14 2628
2012-08-19 3 17 0 16 3017
2012-08-20 2 20 0 14 3296
2012-08-21 0 12 1 16 3643
2012-08-22 2 14 0 18 3501
2012-08-23 0 26 0 17 3497
2012-08-24 0 14 0 15 3563
2012-08-25 0 23 0 16 3262
2012-08-26 2 15 0 14 3447
2012-08-27 1 23 0 13 3342
2012-08-28 1 4 0 17 2817
2012-08-29 2 22 0 20 3476
2012-08-30 2 67 1 18 3756
2012-08-31 1 29 0 29 2955
Juillet 2012 24 563 2 157 78638
Juin 2012 39 984 10 33 88620
Mai 2012 22 703 5 26 77701
Avril 2012 33 714 4 33 95151
2012-04-01 2 22 0 25 3938
2012-04-02 1 49 0 26 3936
2012-04-03 1 13 0 22 3955
2012-04-04 1 23 1 21 3616
2012-04-05 1 23 0 21 4026
2012-04-06 2 13 0 22 3297
2012-04-07 1 14 1 20 3117
2012-04-08 0 10 0 17 3082
2012-04-09 3 13 0 20 2799
2012-04-10 0 23 0 24 3521
2012-04-11 0 15 0 21 3174
2012-04-12 0 19 0 19 3154
2012-04-13 0 17 0 17 2926
2012-04-14 0 22 1 22 2797
2012-04-15 1 19 0 20 2363
2012-04-16 5 42 0 23 4103
2012-04-17 0 37 0 21 3144
2012-04-18 1 19 0 25 3996
2012-04-19 1 16 0 20 2869
2012-04-20 1 24 0 19 3018
2012-04-21 1 34 0 23 3678
2012-04-22 0 30 0 23 2720
2012-04-23 1 13 0 18 3576
2012-04-24 3 22 0 19 2798
2012-04-25 2 24 0 20 3296
2012-04-26 0 26 0 22 2713
2012-04-27 0 24 0 14 2406
2012-04-28 1 12 0 33 2172
2012-04-29 3 64 1 14 2564
2012-04-30 1 32 0 13 2397
Mars 2012 35 977 5 48 160160
Février 2012 34 704 5 33 117877
Janvier 2012 44 958 1 30 111249
* 2011 822 21877 118 48 1861895
Décembre 2011 68 1315 7 36 141929
Novembre 2011 94 1539 4 36 150015
Octobre 2011 81 1597 13 41 169207
Septembre 2011 96 1991 19 24 158540
Août 2011 68 1372 16 48 135201
Juillet 2011 57 1156 10 30 112626
Juin 2011 40 1214 6 31 149115
Mai 2011 64 1997 8 39 181997
2011-05-01 1 44 0 21 3800
2011-05-02 2 97 0 21 4247
2011-05-03 2 60 0 15 3949
2011-05-04 2 57 0 22 4174
2011-05-05 2 87 0 29 4101
2011-05-06 1 46 0 19 3293
2011-05-07 3 21 0 31 5860
2011-05-08 1 13 1 29 6061
2011-05-09 2 62 1 26 7057
2011-05-10 3 117 1 32 13635
2011-05-11 0 70 0 33 8213
2011-05-12 4 99 0 39 6910
2011-05-13 3 60 0 27 5773
2011-05-14 3 45 1 23 4456
2011-05-15 1 55 0 26 5530
2011-05-16 1 73 0 34 6924
2011-05-17 0 96 0 25 5617
2011-05-18 4 144 0 29 7640
2011-05-19 2 91 0 34 8906
2011-05-20 1 45 0 28 5778
2011-05-21 0 21 0 38 5753
2011-05-22 1 55 0 29 6481
2011-05-23 7 130 0 23 10799
2011-05-24 1 41 0 28 4569
2011-05-25 3 51 0 34 6528
2011-05-26 0 71 2 24 4490
2011-05-27 1 49 1 18 3249
2011-05-28 0 36 0 14 2868
2011-05-29 7 31 0 23 4945
2011-05-30 3 76 0 28 5514
2011-05-31 3 54 1 25 4877
Avril 2011 46 1637 9 38 176986
2011-04-01 3 85 0 24 5196
2011-04-02 2 26 0 25 3181
2011-04-03 1 47 0 22 3986
2011-04-04 5 87 0 23 5162
2011-04-05 3 126 0 26 5929
2011-04-06 2 86 0 30 5882
2011-04-07 2 66 0 28 5722
2011-04-08 1 43 0 24 4364
2011-04-09 0 20 0 30 5658
2011-04-10 2 18 0 23 5927
2011-04-11 1 70 0 29 6508
2011-04-12 2 92 0 16 4305
2011-04-13 0 60 0 19 3888
2011-04-14 3 58 2 36 11355
2011-04-15 1 48 0 26 8294
2011-04-16 0 22 0 24 5495
2011-04-17 0 22 0 27 5056
2011-04-18 1 49 1 38 7751
2011-04-19 0 41 0 32 8124
2011-04-20 0 29 1 28 7842
2011-04-21 2 75 2 29 7444
2011-04-22 4 72 1 33 6852
2011-04-23 2 53 0 26 6996
2011-04-24 3 39 1 32 6830
2011-04-25 1 54 0 27 5518
2011-04-26 2 61 0 30 6064
2011-04-27 1 30 0 22 4274
2011-04-28 0 71 0 28 4955
2011-04-29 0 49 0 28 4772
2011-04-30 2 38 1 24 3656
Mars 2011 54 2388 6 31 211307
Février 2011 59 2656 5 46 128248
Janvier 2011 95 3015 15 44 146724
* 2010 615 23079 70 91 1409620
Décembre 2010 54 2635 5 43 199984
2010-12-01 4 200 0 33 5797
2010-12-02 2 80 0 27 4428
2010-12-03 0 92 0 23 3768
2010-12-04 1 50 1 19 2892
2010-12-05 1 52 0 26 3390
2010-12-06 0 92 0 29 3863
2010-12-07 1 113 0 34 4176
2010-12-08 2 59 0 34 4663
2010-12-09 1 112 1 30 4738
2010-12-10 0 81 0 26 4475
2010-12-11 2 57 0 29 3894
2010-12-12 2 51 0 42 3962
2010-12-13 3 63 0 32 4381
2010-12-14 2 89 0 32 7458
2010-12-15 2 146 0 32 8138
2010-12-16 1 120 0 33 13324
2010-12-17 2 134 0 43 25752
2010-12-18 1 65 0 17 12634
2010-12-19 3 59 0 21 14562
2010-12-20 4 92 1 26 8417
2010-12-21 1 83 1 24 6202
2010-12-22 4 109 0 34 8319
2010-12-23 2 97 0 31 4509
2010-12-24 0 19 0 17 4671
2010-12-25 2 33 0 33 4728
2010-12-26 2 42 0 31 4717
2010-12-27 3 132 1 41 5593
2010-12-28 1 78 0 43 4517
2010-12-29 2 117 0 31 4767
2010-12-30 2 87 0 24 4387
2010-12-31 1 31 0 24 2862
Novembre 2010 59 2475 6 49 127779
2010-11-01 2 69 0 42 4918
2010-11-02 4 147 0 40 5882
2010-11-03 1 134 0 34 4974
2010-11-04 4 98 0 28 4484
2010-11-05 3 140 0 34 4770
2010-11-06 1 30 0 25 2633
2010-11-07 1 56 0 25 3634
2010-11-08 1 50 0 37 4890
2010-11-09 2 60 1 38 3406
2010-11-10 3 87 0 41 4949
2010-11-11 2 48 0 40 3457
2010-11-12 1 54 0 28 3255
2010-11-13 1 41 0 24 2528
2010-11-14 2 94 0 37 4624
2010-11-15 1 129 1 49 4879
2010-11-16 1 82 0 33 4288
2010-11-17 0 44 0 27 4513
2010-11-18 1 65 0 22 3684
2010-11-19 2 72 2 23 3586
2010-11-20 4 70 0 24 3798
2010-11-21 3 70 0 26 3650
2010-11-22 3 81 0 30 4196
2010-11-23 1 80 0 26 4872
2010-11-24 3 110 1 27 4984
2010-11-25 3 129 1 33 4861
2010-11-26 1 85 0 32 4900
2010-11-27 1 38 0 27 3096
2010-11-28 0 46 0 34 3836
2010-11-29 3 111 0 33 4893
2010-11-30 4 155 0 33 5339
Octobre 2010 56 2811 15 58 134942
Septembre 2010 53 1528 8 29 95249
Août 2010 32 1287 6 33 89617
Juillet 2010 34 1637 5 32 97290
Juin 2010 46 2137 3 28 109648
Mai 2010 50 1497 6 28 99050
Avril 2010 45 1888 3 26 102219
2010-04-01 3 88 0 18 4705
2010-04-02 1 97 1 17 5127
2010-04-03 0 48 1 16 4067
2010-04-04 0 25 0 17 3540
2010-04-05 2 54 0 15 3258
2010-04-06 0 69 0 19 3639
2010-04-07 1 67 0 19 3590
2010-04-08 5 109 0 25 4043
2010-04-09 2 117 0 22 4430
2010-04-10 0 44 0 17 2821
2010-04-11 2 71 0 18 3408
2010-04-12 2 101 0 21 4509
2010-04-13 1 64 0 16 3272
2010-04-14 2 56 0 19 3587
2010-04-15 2 42 1 20 3071
2010-04-16 2 48 0 18 3184
2010-04-17 0 37 0 17 2301
2010-04-18 0 20 0 17 2342
2010-04-19 1 45 0 22 3138
2010-04-20 2 70 0 18 3550
2010-04-21 1 33 0 16 2917
2010-04-22 2 70 0 26 3255
2010-04-23 0 60 0 22 3359
2010-04-24 4 34 0 16 2265
2010-04-25 4 71 0 18 2831
2010-04-26 1 105 0 23 3707
2010-04-27 3 68 0 19 2863
2010-04-28 0 43 0 20 3119
2010-04-29 0 61 0 16 3058
2010-04-30 2 71 0 15 3263
Mars 2010 53 1534 2 46 118201
Février 2010 65 1574 4 91 117274
Janvier 2010 68 2076 7 43 118367
* 2009 752 28223 96 159 970278
Décembre 2009 39 2001 5 54 122418
Novembre 2009 59 3138 6 38 117432
Octobre 2009 67 3218 11 18 122232
Septembre 2009 73 2730 14 159 92082
2009-09-01 4 68 1 15 2626
2009-09-02 0 56 0 12 2372
2009-09-03 2 195 2 15 3946
2009-09-04 2 190 0 12 4086
2009-09-05 1 48 1 10 2054
2009-09-06 4 66 0 9 2505
2009-09-07 2 88 0 12 2827
2009-09-08 1 58 0 14 2613
2009-09-09 3 77 2 159 4703
2009-09-10 0 114 0 14 3743
2009-09-11 1 74 0 12 3640
2009-09-12 2 56 0 10 2609
2009-09-13 3 93 0 10 3245
2009-09-14 1 193 1 14 5003
2009-09-15 4 138 1 12 3518
2009-09-16 1 122 0 13 3210
2009-09-17 4 86 2 11 2944
2009-09-18 2 98 0 11 2944
2009-09-19 5 104 2 11 2638
2009-09-20 5 97 0 15 2994
2009-09-21 3 77 0 12 2877
2009-09-22 3 56 0 0 2425
2009-09-23 2 72 0 13 2559
2009-09-24 1 96 0 12 2902
2009-09-25 1 54 0 11 2059
2009-09-26 1 35 0 9 2795
2009-09-27 2 49 0 13 2487
2009-09-28 5 85 0 10 2564
2009-09-29 6 92 0 27 4187
2009-09-30 2 93 2 12 3007
Août 2009 47 1405 8 15 61919
2009-08-01 2 39 0 13 1336
2009-08-02 0 69 0 11 2391
2009-08-03 1 44 0 11 1874
2009-08-04 3 65 0 11 2245
2009-08-05 2 48 0 10 1649
2009-08-06 0 16 0 11 1298
2009-08-07 0 47 1 8 1823
2009-08-08 3 37 1 9 1618
2009-08-09 0 29 0 7 1656
2009-08-10 1 38 0 10 1645
2009-08-11 0 24 0 9 1552
2009-08-12 1 31 0 10 1570
2009-08-13 0 11 0 10 1503
2009-08-14 1 28 1 14 1375
2009-08-15 1 28 0 8 1978
2009-08-16 1 18 0 8 1403
2009-08-17 2 52 0 11 2044
2009-08-18 1 25 0 8 1776
2009-08-19 0 29 0 15 3027
2009-08-20 1 26 0 9 2534
2009-08-21 1 30 0 10 1626
2009-08-22 0 30 0 8 1511
2009-08-23 3 54 0 10 2054
2009-08-24 1 58 0 9 2545
2009-08-25 0 37 0 15 1903
2009-08-26 4 41 1 10 1582
2009-08-27 4 160 2 10 3765
2009-08-28 5 90 2 10 2501
2009-08-29 1 72 0 14 2703
2009-08-30 2 43 0 10 2157
2009-08-31 6 86 0 12 3275
Juillet 2009 68 1737 11 21 67267
Juin 2009 63 2759 4 37 72789
Mai 2009 46 2166 6 16 66386
2009-05-01 1 129 0 10 2835
2009-05-02 1 42 1 14 1469
2009-05-03 0 68 0 13 1801
2009-05-04 3 101 1 16 2844
2009-05-05 2 74 1 13 2433
2009-05-06 4 156 0 15 3705
2009-05-07 1 47 0 12 1946
2009-05-08 1 54 1 9 1538
2009-05-09 2 46 0 10 1306
2009-05-10 2 58 0 12 1788
2009-05-11 0 77 0 13 2263
2009-05-12 1 49 1 11 2134
2009-05-13 0 31 0 11 1993
2009-05-14 0 65 0 12 2003
2009-05-15 0 75 0 11 2324
2009-05-16 2 36 0 8 1545
2009-05-17 1 52 1 13 2284
2009-05-18 0 40 0 11 2729
2009-05-19 1 60 0 11 2402
2009-05-20 0 90 0 10 2220
2009-05-21 5 54 0 10 1843
2009-05-22 0 36 0 10 1520
2009-05-23 0 38 0 8 1804
2009-05-24 5 74 0 10 2169
2009-05-25 6 80 0 13 2515
2009-05-26 1 105 0 13 2637
2009-05-27 4 128 0 14 3088
2009-05-28 0 85 0 9 1806
2009-05-29 0 82 0 11 2137
2009-05-30 0 48 0 8 1394
2009-05-31 3 86 0 13 1911
Avril 2009 101 2850 6 16 73303
Mars 2009 80 3538 7 17 83610
Février 2009 57 1586 6 16 50521
2009-02-01 3 79 0 10 1938
2009-02-02 2 66 0 11 2491
2009-02-03 2 62 1 13 2112
2009-02-04 2 48 0 12 1911
2009-02-05 1 54 0 10 1840
2009-02-06 0 42 1 9 1456
2009-02-07 1 13 0 6 1032
2009-02-08 5 69 1 9 1650
2009-02-09 3 48 0 10 1590
2009-02-10 2 56 0 8 1453
2009-02-11 1 38 1 9 1697
2009-02-12 2 30 0 8 1354
2009-02-13 3 52 1 12 1429
2009-02-14 1 29 0 11 988
2009-02-15 2 41 0 8 1595
2009-02-16 2 62 0 10 2271
2009-02-17 1 44 0 10 1926
2009-02-18 1 62 0 10 2139
2009-02-19 5 89 0 12 2304
2009-02-20 1 66 0 12 2066
2009-02-21 0 41 0 9 1177
2009-02-22 6 58 0 11 1838
2009-02-23 2 67 0 10 1907
2009-02-24 1 64 0 12 2219
2009-02-25 1 85 0 16 2446
2009-02-26 2 76 0 12 2117
2009-02-27 1 82 0 11 2035
2009-02-28 4 63 1 10 1540
Janvier 2009 52 1095 12 10 40319
* 2008 334 4655 56 26 234055
Décembre 2008 36 663 7 12 28104
Novembre 2008 51 1090 9 10 35948
Octobre 2008 50 609 5 10 26582
2008-10-01 4 74 0 10 1718
2008-10-02 0 20 1 7 955
2008-10-03 3 35 0 7 1660
2008-10-04 0 8 0 5 1228
2008-10-05 3 31 0 7 1306
2008-10-06 4 28 0 8 771
2008-10-07 0 12 0 9 791
2008-10-08 0 2 0 5 459
2008-10-09 1 13 0 7 501
2008-10-10 1 14 1 7 785
2008-10-11 1 7 0 5 486
2008-10-12 2 19 0 7 758
2008-10-13 4 29 0 6 852
2008-10-14 1 12 0 6 550
2008-10-15 2 15 0 7 607
2008-10-16 0 14 0 4 475
2008-10-17 1 18 1 6 748
2008-10-18 1 22 0 7 727
2008-10-19 4 26 1 7 1372
2008-10-20 1 13 0 10 751
2008-10-21 0 16 0 5 751
2008-10-22 1 10 0 4 431
2008-10-23 3 24 0 7 840
2008-10-24 0 20 0 5 732
2008-10-25 1 6 0 6 746
2008-10-26 3 19 0 6 777
2008-10-27 5 26 0 8 792
2008-10-28 3 29 1 8 1405
2008-10-29 1 17 0 6 1065
2008-10-30 0 12 0 5 819
2008-10-31 0 18 0 7 724
Septembre 2008 40 619 5 10 24365
2008-09-01 0 6 0 7 539
2008-09-02 2 16 0 0 576
2008-09-03 1 13 0 5 857
2008-09-04 1 9 0 6 627
2008-09-05 1 15 0 7 829
2008-09-06 1 7 0 6 671
2008-09-07 1 17 0 4 1181
2008-09-08 5 29 0 6 1459
2008-09-09 0 2 0 5 741
2008-09-10 1 9 0 5 540
2008-09-11 0 7 0 6 574
2008-09-12 2 27 0 7 779
2008-09-13 0 11 0 6 602
2008-09-14 0 5 0 6 478
2008-09-15 6 28 1 6 990
2008-09-16 1 15 0 6 639
2008-09-17 0 26 1 7 1061
2008-09-18 1 14 0 6 720
2008-09-19 1 16 0 6 620
2008-09-20 0 9 0 5 403
2008-09-21 2 17 2 6 630
2008-09-22 0 32 0 7 887
2008-09-23 1 22 0 10 697
2008-09-24 3 54 0 10 1244
2008-09-25 3 27 0 7 873
2008-09-26 1 23 0 6 770
2008-09-27 0 21 0 8 670
2008-09-28 2 35 0 7 911
2008-09-29 2 57 0 6 1560
2008-09-30 2 50 1 9 1237
Août 2008 28 252 6 9 21916
Juillet 2008 20 256 5 7 16733
Juin 2008 17 363 6 26 18903
Mai 2008 17 180 2 10 13320
2008-05-01 0 2 0 3 298
2008-05-02 0 7 0 3 301
2008-05-03 0 2 0 3 238
2008-05-04 0 2 0 4 802
2008-05-05 1 4 0 3 331
2008-05-06 0 6 0 0 392
2008-05-07 0 2 0 4 358
2008-05-08 0 1 0 2 277
2008-05-09 0 5 1 4 290
2008-05-10 0 2 0 3 288
2008-05-11 1 2 0 2 369
2008-05-12 1 6 0 5 569
2008-05-13 1 10 0 5 595
2008-05-14 0 16 1 4 626
2008-05-15 3 13 0 0 742
2008-05-16 0 7 0 5 526
2008-05-17 1 7 0 5 478
2008-05-18 0 3 0 4 760
2008-05-19 0 4 0 4 495
2008-05-20 1 5 0 3 347
2008-05-21 0 12 0 4 459
2008-05-22 0 4 0 5 505
2008-05-23 0 3 0 3 360
2008-05-24 1 8 0 4 308
2008-05-25 0 5 0 2 261
2008-05-26 0 7 0 3 260
2008-05-27 0 3 0 10 398
2008-05-28 3 8 0 7 411
2008-05-29 0 5 0 5 350
2008-05-30 1 9 0 0 574
2008-05-31 3 10 0 5 352
Avril 2008 16 146 3 8 16063
Mars 2008 18 158 1 9 12835
Février 2008 19 155 2 9 9679
Janvier 2008 22 164 5 7 9607
2008-01-01 0 0 0 3 156
2008-01-02 1 6 0 3 272
2008-01-03 0 4 1 5 375
2008-01-04 0 10 0 5 389
2008-01-05 0 3 1 0 262
2008-01-06 0 3 0 7 269
2008-01-07 1 4 1 0 273
2008-01-08 1 5 0 4 363
2008-01-09 1 6 0 4 353
2008-01-10 2 18 0 4 470
2008-01-11 0 2 0 5 307
2008-01-12 0 0 0 2 173
2008-01-13 0 8 0 3 213
2008-01-14 0 5 0 6 311
2008-01-15 0 4 0 4 276
2008-01-16 0 3 0 4 283
2008-01-17 1 4 0 5 318
2008-01-18 0 7 0 5 340
2008-01-19 1 4 0 5 253
2008-01-20 0 2 1 4 270
2008-01-21 0 4 0 5 319
2008-01-22 2 2 0 0 196
2008-01-23 1 3 0 3 205
2008-01-24 0 6 0 4 222
2008-01-25 0 4 0 4 317
2008-01-26 0 2 0 4 258
2008-01-27 2 4 0 5 300
2008-01-28 4 13 1 5 640
2008-01-29 2 13 0 5 449
2008-01-30 2 9 0 0 384
2008-01-31 1 6 0 4 391
* 2007 276 2246 55 9 102999
Décembre 2007 21 167 5 8 17081
Novembre 2007 20 168 3 6 8467
Octobre 2007 21 147 4 5 8193
2007-10-01 3 12 0 3 329
2007-10-02 0 6 0 4 319
2007-10-03 0 3 0 4 296
2007-10-04 2 10 0 3 310
2007-10-05 0 4 0 4 289
2007-10-06 0 0 0 3 208
2007-10-07 1 2 0 5 203
2007-10-08 1 9 1 4 335
2007-10-09 1 3 0 0 267
2007-10-10 1 7 1 3 300
2007-10-11 0 3 0 4 241
2007-10-12 0 2 0 5 251
2007-10-13 1 3 0 3 247
2007-10-14 0 0 0 3 152
2007-10-15 1 3 0 4 225
2007-10-16 0 2 0 2 145
2007-10-17 3 14 0 5 384
2007-10-18 1 5 0 0 378
2007-10-19 1 3 0 0 261
2007-10-20 0 2 0 3 226
2007-10-21 0 7 0 5 265
2007-10-22 0 0 0 3 197
2007-10-23 0 0 0 0 211
2007-10-24 1 2 0 3 164
2007-10-25 0 0 0 4 162
2007-10-26 1 2 0 4 138
2007-10-27 0 0 0 2 243
2007-10-28 2 3 1 4 239
2007-10-29 0 5 0 3 225
2007-10-30 1 20 1 5 587
2007-10-31 0 15 0 0 396
Septembre 2007 22 183 4 9 9896
Août 2007 23 226 2 6 9096
Juillet 2007 18 127 1 4 10165
2007-07-01 0 3 0 4 345
2007-07-02 0 3 0 4 509
2007-07-03 1 4 0 3 302
2007-07-04 1 6 0 0 431
2007-07-05 0 1 0 3 348
2007-07-06 0 6 0 3 356
2007-07-07 1 6 0 3 274
2007-07-08 0 4 0 4 314
2007-07-09 0 5 0 0 411
2007-07-10 0 2 0 4 320
2007-07-11 0 0 0 4 238
2007-07-12 2 2 0 3 264
2007-07-13 1 4 0 0 268
2007-07-14 2 3 0 2 203
2007-07-15 0 0 0 0 245
2007-07-16 2 10 1 4 539
2007-07-17 0 5 0 4 322
2007-07-18 0 5 0 4 436
2007-07-19 0 10 0 0 392
2007-07-20 1 4 0 3 235
2007-07-21 1 2 0 2 215
2007-07-22 0 2 0 0 250
2007-07-23 3 6 0 3 602
2007-07-24 1 8 0 3 356
2007-07-25 0 7 0 4 392
2007-07-26 0 2 0 3 281
2007-07-27 0 9 0 4 327
2007-07-28 0 0 0 3 246
2007-07-29 1 3 0 2 219
2007-07-30 1 2 0 4 276
2007-07-31 0 3 0 4 249
Juin 2007 25 309 2 6 13196
Mai 2007 30 315 8 7 11830
2007-05-01 1 4 0 3 287
2007-05-02 1 6 0 4 196
2007-05-03 0 15 0 4 377
2007-05-04 0 6 0 3 271
2007-05-05 1 5 1 6 235
2007-05-06 0 6 1 3 344
2007-05-07 3 19 0 5 507
2007-05-08 1 14 0 6 449
2007-05-09 0 14 0 4 339
2007-05-10 1 9 1 4 472
2007-05-11 1 18 0 4 499
2007-05-12 3 8 0 5 354
2007-05-13 1 10 0 4 358
2007-05-14 4 25 0 7 643
2007-05-15 0 22 1 4 517
2007-05-16 0 14 0 3 354
2007-05-17 0 3 0 4 229
2007-05-18 0 4 0 5 356
2007-05-19 1 6 0 5 346
2007-05-20 2 14 0 5 515
2007-05-21 2 18 0 6 530
2007-05-22 0 13 1 5 424
2007-05-23 2 11 1 4 427
2007-05-24 0 7 0 3 276
2007-05-25 1 9 0 3 488
2007-05-26 0 3 0 4 251
2007-05-27 3 5 0 3 276
2007-05-28 0 4 2 4 451
2007-05-29 1 11 0 5 439
2007-05-30 0 5 0 4 316
2007-05-31 1 7 0 4 304
Avril 2007 44 428 13 9 13382
2007-04-01 0 21 1 4 390
2007-04-02 4 25 0 6 522
2007-04-03 4 21 1 6 568
2007-04-04 3 41 1 8 1017
2007-04-05 2 58 0 6 1236
2007-04-06 1 29 0 6 771
2007-04-07 2 16 1 4 539
2007-04-08 0 6 0 3 243
2007-04-09 2 12 0 6 273
2007-04-10 0 6 0 6 265
2007-04-11 1 7 0 8 508
2007-04-12 1 4 1 8 599
2007-04-13 1 8 1 9 612
2007-04-14 1 2 0 4 309
2007-04-15 0 5 0 5 135
2007-04-16 0 11 0 4 467
2007-04-17 0 4 1 4 250
2007-04-18 1 8 0 7 274
2007-04-19 6 17 0 6 489
2007-04-20 1 23 1 5 463
2007-04-21 1 9 0 6 307
2007-04-22 1 11 2 4 277
2007-04-23 2 10 1 6 377
2007-04-24 1 22 0 5 524
2007-04-25 2 17 1 6 389
2007-04-26 3 12 0 6 502
2007-04-27 1 11 0 4 361
2007-04-28 2 3 0 3 172
2007-04-29 0 8 1 5 310
2007-04-30 1 1 0 5 233
Mars 2007 52 176 13 4 1693